Precipitable_Water
0.90 0.97 0.98 1.00 1.00 1.04 1.05 1.00 0.99 0.98 0.93 0.90 0.94 0.92 0.90 0.95 0.96 0.98 1.00 0.98 0.96 1.02 1.02 0.98 0.94 0.88 0.84 0.88 1.03 1.15 1.23 1.26
0.89 0.95 0.97 1.01 1.03 1.02 0.99 0.99 1.00 0.98 0.95 0.89 0.92 0.94 0.91 0.93 0.95 0.98 0.99 0.97 0.99 1.05 1.05 1.04 0.97 0.94 0.90 0.87 0.97 1.21 1.33 1.28
0.91 0.92 0.93 0.95 1.00 1.00 0.96 0.99 1.01 1.02 0.99 0.94 0.91 0.92 0.90 0.91 0.92 0.96 1.00 1.01 1.02 1.07 1.10 1.10 1.05 0.98 0.95 0.98 1.06 1.29 1.38 1.52
0.89 0.94 0.92 0.92 0.88 0.93 0.96 0.98 1.02 1.03 1.03 0.99 0.90 0.93 0.91 0.98 0.92 0.99 0.97 1.05 1.07 1.08 1.12 1.15 1.15 1.13 1.08 1.08 1.12 1.26 1.34 1.43
0.88 0.94 0.98 0.94 0.93 0.91 0.92 0.96 0.96 1.00 1.03 1.05 0.98 0.94 0.98 1.02 1.03 1.01 0.95 1.04 1.07 1.10 1.09 1.14 1.15 1.21 1.33 1.29 1.16 1.23 1.21 1.29
0.85 0.94 0.96 1.00 1.06 0.99 0.87 0.89 0.92 0.93 1.00 1.06 0.99 1.03 1.06 0.94 1.04 1.03 0.95 0.95 1.02 1.07 1.08 1.09 1.13 1.20 1.35 1.38 1.32 1.26 1.23 1.28
0.83 0.89 0.92 0.96 1.05 1.04 0.93 0.90 0.88 0.93 0.96 1.04 1.02 1.04 1.09 1.07 1.03 1.10 1.01 0.95 0.95 1.04 1.05 1.08 1.07 1.11 1.19 1.26 1.25 1.23 1.20 1.20
0.89 0.87 0.91 0.93 0.97 1.06 1.00 0.98 0.96 0.93 0.96 1.01 1.04 1.02 1.10 1.10 1.06 1.11 1.08 1.02 1.01 0.98 1.06 1.05 1.10 1.10 1.09 1.16 1.14 1.15 1.13 1.08
0.86 0.90 0.94 0.90 0.90 1.06 1.05 1.03 1.03 0.99 0.99 1.01 1.01 1.01 1.05 1.07 1.06 1.04 1.05 1.05 1.07 1.06 1.03 1.11 1.10 1.14 1.12 1.12 1.11 1.11 1.08 1.10
0.88 0.91 0.94 0.93 0.89 0.97 1.03 1.04 1.04 1.01 1.05 1.05 1.05 0.99 1.00 1.02 1.00 0.99 1.05 1.06 1.04 1.07 1.03 1.01 1.05 1.05 1.07 1.08 1.09 1.10 1.08 1.09
0.85 0.88 0.91 0.94 0.97 0.95 1.03 1.02 1.07 1.09 1.05 1.02 1.06 1.05 0.98 0.98 0.94 0.96 1.00 1.00 1.05 1.04 1.01 1.02 0.98 1.00 0.99 1.04 1.07 1.05 1.08 1.12
0.86 0.85 0.90 0.99 1.03 1.02 1.01 1.04 1.07 1.10 1.09 1.05 1.06 1.07 1.03 0.94 0.98 0.93 0.98 0.94 0.96 0.98 0.98 1.00 0.98 0.97 1.00 0.97 1.03 1.05 1.07 1.06
0.87 0.84 0.84 0.95 0.97 0.94 0.93 0.86 0.97 1.02 1.06 1.09 1.07 1.07 1.09 1.05 0.97 0.98 0.95 0.92 0.89 0.91 0.94 0.93 0.94 0.98 0.93 0.93 1.00 1.07 1.05 1.04
0.88 0.85 0.87 0.88 0.91 0.92 0.94 0.95 0.96 1.00 1.06 1.06 1.07 1.08 1.09 1.09 1.04 0.96 0.96 0.93 0.93 0.91 0.89 0.88 0.92 1.01 0.87 0.88 0.76 0.86 0.95 1.04
0.92 0.89 0.89 0.91 0.92 0.96 0.96 0.99 1.02 0.97 0.96 0.95 0.98 1.02 1.06 1.05 1.04 1.04 1.01 1.00 0.93 0.93 0.93 0.89 0.83 0.93 1.00 0.86 0.76 0.70 0.86 1.03
1.02 0.98 0.95 0.92 0.98 0.94 0.85 0.78 0.73 0.79 0.84 0.92 0.92 1.00 1.02 1.07 1.09 1.09 1.07 1.04 0.97 0.97 1.01 0.95 0.93 0.84 0.97 1.00 0.98 0.97 0.84 0.80
0.95 1.08 1.06 1.01 0.94 0.92 0.90 0.89 0.87 0.87 0.94 0.92 0.95 0.99 1.02 1.03 1.07 1.10 1.08 1.08 1.04 0.99 1.01 1.01 1.01 0.93 0.92 0.97 0.98 0.99 1.00 0.91
0.66 0.73 0.90 1.13 1.05 0.96 0.91 0.83 0.80 0.80 0.84 0.84 0.88 0.95 1.00 1.02 1.03 1.05 1.08 1.08 1.06 1.07 1.04 1.06 1.04 1.04 1.01 0.99 0.98 0.92 0.91 0.94
0.53 0.51 0.47 0.63 0.94 1.03 0.94 0.88 0.85 0.75 0.77 0.83 0.84 0.86 0.91 0.90 0.93 0.96 1.00 1.04 1.07 1.11 1.09 1.07 1.08 1.02 1.04 1.00 1.05 1.02 1.08 1.07
0.38 0.47 0.52 0.51 0.47 0.59 0.98 0.96 0.94 0.86 0.82 0.88 0.93 0.92 0.91 0.95 0.96 0.96 0.97 1.05 1.09 1.09 1.09 1.07 1.08 1.10 1.04 1.07 1.08 1.08 1.11 1.11
Wind_Speed
11 11 12 12 12 12 12 13 13 13 13 13 13 13 13 13 12 12 12 11 11 11 10 9 9 9 8 8 7 6 6 6
10 10 11 11 11 11 12 12 12 12 12 12 12 12 12 11 11 11 11 11 11 10 9 9 8 8 7 7 6 5 4 4
11 10 10 11 11 11 12 12 12 11 11 11 11 11 11 11 10 10 10 10 10 9 8 7 6 6 6 5 5 3 2 0
11 11 11 10 10 11 12 12 11 11 11 11 10 10 10 10 9 9 9 9 9 8 7 6 5 4 4 3 3 1 1 1
12 12 12 11 10 11 11 11 12 12 11 11 11 10 10 9 9 9 9 9 8 7 6 6 5 4 3 3 4 3 3 4
13 13 13 12 10 10 11 11 12 12 12 12 12 11 10 10 9 9 9 9 9 8 8 7 7 7 6 6 6 7 7 7
13 14 14 14 12 11 11 11 12 12 13 13 13 12 11 11 11 10 10 10 10 10 9 9 9 10 10 10 10 10 11 12
14 15 15 15 14 12 12 12 12 12 13 13 14 13 12 12 12 12 11 12 12 12 11 11 12 12 12 13 13 14 15 15
17 16 16 16 16 14 13 13 13 12 13 13 14 14 13 13 12 12 12 12 12 13 13 13 13 13 14 14 16 17 18 19
20 19 18 17 17 16 15 15 15 15 14 14 15 15 15 14 13 13 13 13 13 12 12 13 13 14 14 15 16 17 18 20
23 22 20 19 18 18 17 17 16 16 17 16 16 17 17 15 15 14 14 14 13 14 14 14 14 15 16 17 18 18 19 20
27 25 23 22 21 20 20 19 19 19 18 19 18 19 19 19 17 17 16 16 16 16 15 16 16 16 17 18 19 20 20 21
31 28 27 25 24 23 23 22 21 21 22 22 22 22 22 21 21 20 20 19 19 18 18 17 17 17 18 19 19 19 21 22
34 32 31 29 28 27 26 25 24 24 24 24 25 25 25 25 24 24 23 22 22 21 21 20 20 18 19 19 19 21 23 23
38 35 34 33 32 30 28 28 26 26 27 27 28 28 28 28 28 27 27 26 26 25 24 24 22 22 22 19 18 20 20 21
39 38 37 36 36 34 33 32 30 30 30 30 31 31 31 30 30 30 30 29 29 29 28 27 26 24 24 26 26 23 21 21
38 38 40 39 38 38 37 37 35 33 33 33 34 34 34 33 32 32 32 32 31 32 31 30 29 28 28 26 27 27 28 27
42 42 42 42 42 42 41 40 38 36 36 36 36 36 35 35 35 34 33 33 33 33 33 32 31 30 30 30 28 27 27 26
41 44 44 45 44 44 44 44 42 41 39 38 37 37 37 36 36 35 34 34 33 33 33 33 32 32 31 31 31 31 29 28
46 43 47 47 46 47 46 47 46 44 43 41 40 39 39 38 37 36 36 35 34 34 34 33 34 33 33 32 31 31 31 31
Wind_Direction
149 151 153 151 147 146 143 141 138 137 135 135 135 134 135 134 134 135 135 134 132 128 124 122 120 116 116 113 109 99 93 97
161 157 159 161 160 158 154 151 148 145 143 141 141 140 141 141 141 141 142 143 141 135 128 125 125 124 122 120 114 101 87 94
173 169 165 166 168 169 166 164 160 156 153 152 150 149 150 150 151 151 151 151 151 149 142 138 134 135 135 133 132 107 53 22
182 180 176 172 174 176 178 178 175 173 169 166 163 162 162 161 162 163 163 163 164 163 160 154 150 148 151 160 179 272 324 13
189 187 185 182 180 182 185 187 189 188 186 183 180 177 176 177 175 177 179 181 182 184 187 189 192 198 215 235 240 277 275 297
196 196 193 192 189 188 190 192 195 197 198 196 195 194 193 194 194 196 199 200 203 208 215 221 228 236 247 261 261 269 274 295
202 201 201 200 199 198 198 199 200 202 203 205 206 208 209 210 212 212 214 216 221 226 232 237 244 249 256 262 268 272 273 278
209 208 207 206 207 207 206 205 206 207 208 209 211 214 217 219 221 223 226 228 231 237 243 248 253 258 262 265 269 272 275 275
215 214 212 212 212 214 214 213 213 214 214 215 216 218 221 223 227 230 233 235 238 243 248 252 258 262 267 271 273 275 275 277
219 219 218 217 218 220 220 221 221 221 220 221 222 223 226 228 231 233 235 238 241 246 251 255 260 265 271 274 277 279 281 280
221 222 222 221 223 224 226 227 228 228 227 228 227 227 229 232 234 236 237 241 245 248 253 258 263 268 272 276 278 281 284 284
224 226 226 226 227 229 232 233 234 233 234 233 233 233 234 235 239 239 242 244 248 252 255 259 264 269 273 278 280 281 283 285
226 227 229 229 230 233 235 236 237 238 239 239 238 239 238 239 242 244 245 247 250 253 256 260 265 269 274 280 282 284 283 285
228 230 231 233 235 238 239 240 241 243 243 244 243 243 242 243 244 246 247 250 252 254 255 260 264 268 273 281 286 287 284 285
232 231 234 235 237 239 241 242 244 244 246 247 247 246 246 246 247 249 249 251 253 254 256 257 264 267 268 276 286 288 293 290
233 234 235 236 237 240 242 244 246 248 250 251 250 249 248 249 250 250 252 253 254 255 257 259 261 267 269 270 275 285 292 297
233 236 237 237 239 242 244 246 250 252 252 252 251 250 249 250 251 252 253 254 255 255 257 257 261 264 269 273 275 278 281 286
238 240 240 240 240 242 245 247 249 251 253 254 252 250 250 250 251 252 254 254 255 256 256 257 259 263 267 270 275 277 279 282
241 241 241 242 244 244 244 248 250 251 253 253 251 250 249 250 251 252 253 254 256 256 256 257 259 262 266 269 272 274 278 279
245 246 245 243 244 247 248 248 249 251 252 252 252 250 250 251 251 252 253 254 255 255 256 257 259 263 264 268 271 273 274 276